DW7287 Weather Reports


time (UTC)temp
F
wind
direction
speed
knots
gust
knots
rain 1hr
in
rain 24hr
in
rain mn
in
humidity
%
barometer
mb
20260509141551 58 360 0.0 0.9 0.00 0.00 0.00 72 1010.8
20260509140053 58 0 0.0 1.7 0.00 0.00 0.00 69 1010.7
20260509134552 58 0 0.0 1.7 0.00 0.00 0.00 69 1010.5
20260509133054 58 0 0.0 1.7 0.00 0.00 0.00 69 1010.4
20260509131552 58 360 0.0 2.6 0.00 0.00 0.00 70 1010.5
20260509130107 55 360 0.0 1.7 0.00 0.00 0.00 77 1010.4
20260509124555 54 0 0.0 0.0 0.00 0.00 0.00 80 1010.6
20260509123054 53 0 0.0 0.0 0.00 0.00 0.00 82 1010.8
20260509121601 52 0 0.0 0.9 0.00 0.00 0.00 86 1010.8
20260509120053 51 0 0.0 0.0 0.00 0.00 0.00 87 1010.8
20260509114558 51 0 0.0 0.9 0.00 0.00 0.00 87 1010.7
20260509113058 50 0 0.0 0.0 0.00 0.00 0.00 86 1010.6
20260509111553 50 0 0.0 0.9 0.00 0.00 0.00 86 1010.4
20260509110056 50 0 0.0 0.0 0.00 0.00 0.00 87 1010.3
20260509104553 50 360 0.0 0.9 0.00 0.00 0.00 86 1010.2
20260509103101 50 0 0.0 0.9 0.00 0.00 0.00 86 1010.3
20260509101603 50 0 0.0 0.9 0.00 0.00 0.00 86 1010.2
20260509100054 50 360 0.0 0.9 0.00 0.00 0.00 85 1010.3
20260509094604 50 0 0.0 0.0 0.00 0.00 0.00 84 1010.3
20260509093055 50 0 0.0 0.9 0.00 0.00 0.00 84 1010.3
20260509091605 50 0 0.0 0.9 0.00 0.00 0.00 83 1010.6
20260509084555 51 0 0.0 1.7 0.00 0.00 0.00 82 1010.7
20260509083100 51 0 0.0 0.9 0.00 0.00 0.00 81 1010.8
20260509081555 52 360 0.0 1.7 0.00 0.00 0.00 79 1010.8
20260509080054 52 0 0.0 1.7 0.00 0.00 0.00 81 1010.7
20260509074556 51 360 0.0 1.7 0.00 0.00 0.00 81 1010.7
20260509073054 51 0 0.0 0.9 0.00 0.00 0.00 83 1010.7
20260509071554 52 0 0.0 0.9 0.00 0.00 0.00 83 1010.4
20260509070058 52 0 0.0 0.0 0.00 0.00 0.00 83 1010.4
20260509064553 52 0 0.0 0.0 0.00 0.00 0.00 82 1010.4
20260509063051 52 0 0.0 0.9 0.00 0.00 0.00 82 1010.4
20260509061553 52 0 0.0 0.0 0.00 0.00 0.00 81 1010.6
20260509060107 52 0 0.0 0.0 0.00 0.00 0.00 80 1010.7
20260509054559 53 0 0.0 0.0 0.00 0.00 0.00 79 1010.7
20260509053110 53 0 0.0 0.0 0.00 0.00 0.00 78 1010.7
20260509051555 53 0 0.0 0.0 0.00 0.00 0.00 76 1010.9
20260509050059 53 0 0.0 0.9 0.00 0.00 0.00 75 1010.9
20260509044640 54 0 0.0 0.0 0.00 0.00 0.00 73 1011.0
20260509043137 54 0 0.0 0.0 0.00 0.00 0.00 72 1010.9
20260509041559 54 0 0.0 0.9 0.00 0.00 0.00 71 1011.0
20260509040051 55 0 0.0 0.0 0.00 0.00 0.00 69 1011.1
20260509034614 56 360 0.0 0.9 0.00 0.00 0.00 67 1011.3
20260509033056 56 0 0.0 0.0 0.00 0.00 0.00 64 1011.3
20260509031601 57 0 0.0 0.0 0.00 0.00 0.00 64 1011.3
20260509030112 57 0 0.0 0.0 0.00 0.00 0.00 61 1011.4
20260509024552 58 0 0.0 0.0 0.00 0.00 0.00 62 1011.5
20260509023100 59 0 0.0 0.9 0.00 0.00 0.00 60 1011.6
20260509021558 60 0 0.0 0.0 0.00 0.00 0.00 58 1011.5
20260509020105 61 0 0.0 0.9 0.00 0.00 0.00 48 1011.6
20260509014557 61 0 0.0 0.9 0.00 0.00 0.00 46 1011.5
20260509013100 62 0 0.0 0.9 0.00 0.00 0.00 44 1011.5
20260509011601 62 0 0.0 0.9 0.00 0.00 0.00 42 1011.4
20260509010054 63 0 0.0 0.9 0.00 0.00 0.00 41 1011.4
20260509004600 63 0 0.0 0.9 0.00 0.00 0.00 41 1011.4
20260509003059 64 360 0.0 1.7 0.00 0.00 0.00 39 1011.4
20260509001557 64 0 0.0 0.9 0.00 0.00 0.00 39 1011.2
20260509000107 65 0 0.0 3.5 0.00 0.00 0.00 39 1011.3
20260508234557 65 0 0.0 2.6 0.00 0.00 0.00 38 1011.0
20260508233057 66 360 0.0 3.5 0.00 0.00 0.00 39 1011.1
20260508231555 67 360 0.0 1.7 0.00 0.00 0.00 40 1011.2
20260508224647 68 0 0.0 4.3 0.00 0.00 0.00 37 1011.0
20260508223056 68 57 1.7 7.0 0.00 0.00 0.00 38 1011.0
20260508221557 68 115 0.9 6.1 0.00 0.00 0.00 38 1011.0
20260508220058 68 97 0.0 4.3 0.00 0.00 0.00 37 1011.2
20260508214600 68 55 0.9 4.3 0.00 0.00 0.00 41 1011.2
20260508213056 69 196 0.9 5.2 0.00 0.00 0.00 37 1011.1
20260508211556 69 259 1.7 6.1 0.00 0.00 0.00 36 1011.2
20260508210059 69 279 1.7 7.8 0.00 0.00 0.00 37 1011.4
20260508204557 69 117 0.9 4.3 0.00 0.00 0.00 36 1011.4
20260508203106 69 175 0.9 4.3 0.00 0.00 0.00 37 1011.4
20260508201602 68 360 1.7 4.3 0.00 0.00 0.00 39 1011.9
20260508200053 67 0 0.9 7.8 0.00 0.00 0.00 41 1012.2
20260508194554 67 84 1.7 5.2 0.00 0.00 0.00 39 1012.3
20260508193102 68 269 0.9 5.2 0.00 0.00 0.00 39 1012.7
20260508191555 68 236 1.7 8.7 0.00 0.00 0.00 39 1013.0
20260508190054 67 200 0.9 3.5 0.00 0.00 0.00 40 1013.4
20260508184554 68 281 1.7 7.0 0.00 0.00 0.00 40 1013.7
20260508183051 68 86 1.7 7.0 0.00 0.00 0.00 39 1013.8
20260508181558 68 0 1.7 6.1 0.00 0.00 0.00 40 1013.9
20260508180057 67 0 0.9 7.8 0.00 0.00 0.00 43 1014.2
20260508174557 66 38 0.9 6.1 0.00 0.00 0.00 40 1014.5
20260508173052 66 71 1.7 5.2 0.00 0.00 0.00 42 1014.9
20260508171552 64 0 0.9 7.0 0.00 0.00 0.00 42 1015.0
20260508170052 65 360 1.7 7.8 0.00 0.00 0.00 44 1015.1
20260508164556 64 360 1.7 7.0 0.00 0.00 0.00 44 1015.5
20260508163054 64 360 1.7 5.2 0.00 0.00 0.00 41 1015.9
20260508161558 63 360 0.9 7.8 0.00 0.00 0.00 42 1016.1
20260508160055 63 20 0.9 3.5 0.00 0.00 0.00 44 1016.0
20260508154611 62 0 1.7 5.2 0.00 0.00 0.00 43 1016.3
20260508153058 64 162 2.6 7.0 0.00 0.00 0.00 42 1016.1
20260508151555 63 84 0.9 7.0 0.00 0.00 0.00 44 1016.1
20260508150104 62 360 2.6 8.7 0.00 0.00 0.00 44 1016.3
20260508144555 62 250 1.7 6.1 0.00 0.00 0.00 45 1016.2
20260508143114 61 224 1.7 7.0 0.00 0.00 0.00 48 1016.3